Terminal Aerodrome Forecast
Issued by NWS

Home | Current Version | Previous Version | Graphics & Text | Print | Product List | Glossary On
Versions: 1 2 3 4 5 6 7 8 9 10 11 12 13 14 15 16 17 18 19 20 21
000
FTUS43 KGRB 212100 AAA
TAFATW
TAF AMD
KATW 212136Z 2122/2218 16010KT 3SM BR OVC010
     FM212300 15011KT 3SM BR OVC010
      TEMPO 2123/2203 2SM -SN BR OVC008
     FM220300 16010KT 3SM BR OVC007
     FM220800 15009KT 4SM BR OVC007
     FM221500 13008KT 4SM BR SCT007 OVC012=

USA.gov is the U.S. government's official web portal to all federal, state and local government web resources and services.